| time (UTC) | temp C | wind direction | speed KPH | gust KPH | rain 1hr cm | rain 24hr cm | rain mn cm | humidity % | barometer mb |
| 20260508230957 | 12 | 257 | 0.0 | 3.2 | 0.00 | 0.00 | 0.00 | 36 | 1010.2 |
| 20260508230455 | 12 | 268 | 0.0 | 3.2 | 0.00 | 0.00 | 0.00 | 36 | 1010.3 |
| 20260508225958 | 12 | 269 | 0.0 | 3.2 | 0.00 | 0.00 | 0.00 | 36 | 1010.3 |
| 20260508225455 | 12 | 259 | 1.6 | 3.2 | 0.00 | 0.00 | 0.00 | 36 | 1010.1 |
| 20260508224957 | 12 | 260 | 1.6 | 3.2 | 0.00 | 0.00 | 0.00 | 37 | 1010.2 |
| 20260508224456 | 12 | 268 | 1.6 | 3.2 | 0.00 | 0.00 | 0.00 | 36 | 1010.2 |
| 20260508223456 | 12 | 256 | 1.6 | 6.4 | 0.00 | 0.00 | 0.00 | 34 | 1010.0 |
| 20260508222958 | 13 | 264 | 1.6 | 6.4 | 0.00 | 0.00 | 0.00 | 32 | 1010.1 |
| 20260508221958 | 13 | 252 | 3.2 | 11.3 | 0.00 | 0.00 | 0.00 | 28 | 1010.1 |
| 20260508221456 | 13 | 248 | 3.2 | 9.7 | 0.00 | 0.00 | 0.00 | 28 | 1010.2 |
| 20260508220958 | 13 | 245 | 3.2 | 12.9 | 0.00 | 0.00 | 0.00 | 26 | 1010.1 |
| 20260508220456 | 14 | 250 | 3.2 | 12.9 | 0.00 | 0.00 | 0.00 | 26 | 1010.1 |
| 20260508215959 | 14 | 243 | 6.4 | 11.3 | 0.00 | 0.00 | 0.00 | 25 | 1010.2 |
| 20260508215456 | 14 | 231 | 3.2 | 14.5 | 0.00 | 0.00 | 0.00 | 26 | 1010.0 |
| 20260508214959 | 14 | 223 | 3.2 | 17.7 | 0.00 | 0.00 | 0.00 | 25 | 1009.8 |
| 20260508213456 | 14 | 234 | 8.0 | 14.5 | 0.00 | 0.00 | 0.00 | 24 | 1009.5 |
| 20260508212959 | 15 | 231 | 4.8 | 17.7 | 0.00 | 0.00 | 0.00 | 24 | 1009.7 |
| 20260508210957 | 15 | 243 | 8.0 | 17.7 | 0.00 | 0.00 | 0.00 | 22 | 1009.5 |
| 20260508210456 | 15 | 242 | 3.2 | 24.1 | 0.00 | 0.00 | 0.00 | 22 | 1009.4 |
| 20260508205958 | 15 | 237 | 8.0 | 27.4 | 0.00 | 0.00 | 0.00 | 22 | 1009.5 |
| 20260508205457 | 15 | 235 | 9.7 | 27.4 | 0.00 | 0.00 | 0.00 | 21 | 1009.3 |
| 20260508204959 | 16 | 237 | 9.7 | 22.5 | 0.00 | 0.00 | 0.00 | 21 | 1009.5 |
| 20260508204456 | 16 | 248 | 4.8 | 22.5 | 0.00 | 0.00 | 0.00 | 22 | 1009.5 |
| 20260508203959 | 16 | 252 | 4.8 | 25.7 | 0.00 | 0.00 | 0.00 | 22 | 1009.2 |
| 20260508203456 | 16 | 251 | 8.0 | 27.4 | 0.00 | 0.00 | 0.00 | 21 | 1009.1 |
| 20260508202959 | 16 | 229 | 11.3 | 27.4 | 0.00 | 0.00 | 0.00 | 21 | 1009.3 |
| 20260508202456 | 16 | 224 | 11.3 | 22.5 | 0.00 | 0.00 | 0.00 | 21 | 1009.1 |
| 20260508201958 | 16 | 239 | 9.7 | 27.4 | 0.00 | 0.00 | 0.00 | 23 | 1008.9 |
| 20260508200958 | 16 | 236 | 17.7 | 29.0 | 0.00 | 0.00 | 0.00 | 22 | 1008.9 |
| 20260508200458 | 16 | 239 | 9.7 | 29.0 | 0.00 | 0.00 | 0.00 | 23 | 1008.6 |
| 20260508195958 | 16 | 249 | 12.9 | 29.0 | 0.00 | 0.00 | 0.00 | 23 | 1009.0 |
| 20260508195455 | 16 | 253 | 12.9 | 29.0 | 0.00 | 0.00 | 0.00 | 23 | 1009.2 |
| 20260508194959 | 17 | 244 | 9.7 | 25.7 | 0.00 | 0.00 | 0.00 | 23 | 1009.2 |
| 20260508194456 | 17 | 236 | 11.3 | 32.2 | 0.00 | 0.00 | 0.00 | 25 | 1009.0 |
| 20260508193959 | 16 | 232 | 6.4 | 32.2 | 0.00 | 0.00 | 0.00 | 26 | 1009.1 |
| 20260508193456 | 16 | 238 | 6.4 | 27.4 | 0.00 | 0.00 | 0.00 | 26 | 1009.2 |
| 20260508192958 | 16 | 243 | 16.1 | 27.4 | 0.00 | 0.00 | 0.00 | 25 | 1009.5 |
| 20260508192456 | 16 | 244 | 11.3 | 25.7 | 0.00 | 0.00 | 0.00 | 26 | 1008.8 |
| 20260508191958 | 17 | 244 | 12.9 | 27.4 | 0.00 | 0.00 | 0.00 | 25 | 1009.2 |
| 20260508191456 | 16 | 234 | 9.7 | 27.4 | 0.00 | 0.00 | 0.00 | 27 | 1009.3 |
| 20260508190456 | 17 | 252 | 9.7 | 27.4 | 0.00 | 0.00 | 0.00 | 28 | 1009.4 |
| 20260508185958 | 16 | 265 | 8.0 | 27.4 | 0.00 | 0.00 | 0.00 | 28 | 1009.4 |
| 20260508185457 | 16 | 256 | 4.8 | 25.7 | 0.00 | 0.00 | 0.00 | 29 | 1009.6 |
| 20260508184959 | 16 | 252 | 6.4 | 25.7 | 0.00 | 0.00 | 0.00 | 29 | 1009.5 |
| 20260508184457 | 16 | 236 | 17.7 | 25.7 | 0.00 | 0.00 | 0.00 | 29 | 1009.6 |
| 20260508183457 | 16 | 246 | 6.4 | 24.1 | 0.00 | 0.00 | 0.00 | 30 | 1009.8 |
| 20260508182958 | 16 | 248 | 9.7 | 24.1 | 0.00 | 0.00 | 0.00 | 30 | 1009.8 |
| 20260508182455 | 16 | 248 | 14.5 | 33.8 | 0.00 | 0.00 | 0.00 | 31 | 1009.8 |
| 20260508181456 | 16 | 248 | 12.9 | 33.8 | 0.00 | 0.00 | 0.00 | 30 | 1009.9 |
| 20260508180958 | 16 | 256 | 11.3 | 24.1 | 0.00 | 0.00 | 0.00 | 31 | 1010.0 |
| 20260508180457 | 16 | 267 | 8.0 | 24.1 | 0.00 | 0.03 | 0.00 | 31 | 1010.2 |
| 20260508175958 | 16 | 258 | 12.9 | 24.1 | 0.00 | 0.03 | 0.00 | 31 | 1010.2 |
| 20260508175456 | 15 | 250 | 9.7 | 29.0 | 0.00 | 0.03 | 0.00 | 31 | 1010.4 |
| 20260508174959 | 15 | 249 | 12.9 | 32.2 | 0.00 | 0.03 | 0.00 | 31 | 1010.2 |
| 20260508174456 | 15 | 244 | 11.3 | 32.2 | 0.00 | 0.03 | 0.00 | 32 | 1010.2 |
| 20260508173958 | 15 | 243 | 12.9 | 32.2 | 0.00 | 0.03 | 0.00 | 32 | 1010.1 |
| 20260508173456 | 15 | 251 | 12.9 | 27.4 | 0.00 | 0.03 | 0.00 | 32 | 1010.4 |
| 20260508172959 | 16 | 249 | 6.4 | 24.1 | 0.00 | 0.03 | 0.00 | 34 | 1010.1 |
| 20260508172458 | 16 | 237 | 6.4 | 29.0 | 0.00 | 0.58 | 0.00 | 34 | 1010.2 |
| 20260508171959 | 15 | 243 | 6.4 | 29.0 | 0.00 | 0.58 | 0.00 | 35 | 1010.3 |
| 20260508171456 | 16 | 243 | 9.7 | 25.7 | 0.00 | 0.58 | 0.00 | 34 | 1010.6 |
| 20260508170959 | 15 | 234 | 9.7 | 22.5 | 0.00 | 0.58 | 0.00 | 36 | 1010.6 |
| 20260508165456 | 15 | 243 | 6.4 | 24.1 | 0.00 | 0.58 | 0.00 | 36 | 1010.7 |
| 20260508165001 | 15 | 244 | 11.3 | 27.4 | 0.00 | 0.58 | 0.00 | 36 | 1011.0 |
| 20260508164456 | 15 | 239 | 11.3 | 27.4 | 0.00 | 0.58 | 0.00 | 36 | 1011.1 |
| 20260508163958 | 15 | 237 | 8.0 | 24.1 | 0.00 | 0.58 | 0.00 | 36 | 1011.0 |
| 20260508162959 | 15 | 221 | 6.4 | 27.4 | 0.00 | 0.58 | 0.00 | 36 | 1011.4 |
| 20260508162458 | 15 | 245 | 12.9 | 22.5 | 0.00 | 0.58 | 0.00 | 38 | 1011.3 |
| 20260508161456 | 15 | 231 | 11.3 | 20.9 | 0.00 | 0.58 | 0.00 | 38 | 1011.7 |
| 20260508160457 | 14 | 259 | 12.9 | 27.4 | 0.00 | 0.58 | 0.00 | 39 | 1011.7 |
| 20260508155958 | 14 | 270 | 12.9 | 27.4 | 0.00 | 0.58 | 0.00 | 39 | 1011.8 |
| 20260508155456 | 14 | 274 | 8.0 | 27.4 | 0.00 | 0.58 | 0.00 | 39 | 1012.1 |
| 20260508155000 | 13 | 261 | 6.4 | 22.5 | 0.00 | 0.58 | 0.00 | 39 | 1012.1 |
| 20260508154456 | 13 | 239 | 14.5 | 24.1 | 0.00 | 0.58 | 0.00 | 40 | 1012.2 |
| 20260508153958 | 14 | 239 | 9.7 | 25.7 | 0.00 | 0.58 | 0.00 | 40 | 1012.2 |
| 20260508152456 | 13 | 248 | 12.9 | 24.1 | 0.00 | 0.58 | 0.00 | 40 | 1012.6 |
| 20260508151959 | 13 | 247 | 11.3 | 33.8 | 0.00 | 0.58 | 0.00 | 41 | 1012.6 |
| 20260508151456 | 13 | 252 | 11.3 | 33.8 | 0.00 | 0.58 | 0.00 | 41 | 1012.6 |
| 20260508151000 | 13 | 246 | 8.0 | 27.4 | 0.00 | 0.58 | 0.00 | 41 | 1012.8 |
| 20260508150458 | 13 | 241 | 16.1 | 29.0 | 0.00 | 0.58 | 0.00 | 41 | 1012.8 |
| 20260508145958 | 12 | 245 | 8.0 | 29.0 | 0.00 | 0.58 | 0.00 | 42 | 1013.0 |
| 20260508145457 | 13 | 239 | 12.9 | 29.0 | 0.00 | 0.58 | 0.00 | 42 | 1013.0 |
| 20260508144958 | 13 | 238 | 12.9 | 29.0 | 0.00 | 0.58 | 0.00 | 42 | 1012.9 |
| 20260508144456 | 13 | 237 | 4.8 | 25.7 | 0.00 | 0.58 | 0.00 | 41 | 1012.8 |
| 20260508143959 | 13 | 234 | 17.7 | 27.4 | 0.00 | 0.58 | 0.00 | 43 | 1012.8 |
| 20260508143457 | 12 | 242 | 14.5 | 27.4 | 0.00 | 0.58 | 0.00 | 43 | 1012.9 |
| 20260508143000 | 12 | 253 | 17.7 | 32.2 | 0.00 | 0.58 | 0.00 | 43 | 1012.9 |
| 20260508142456 | 12 | 247 | 11.3 | 32.2 | 0.00 | 0.58 | 0.00 | 44 | 1012.8 |
| 20260508141958 | 12 | 248 | 8.0 | 29.0 | 0.00 | 0.58 | 0.00 | 44 | 1012.8 |
| 20260508141458 | 12 | 240 | 16.1 | 29.0 | 0.00 | 0.58 | 0.00 | 44 | 1013.0 |
| 20260508141000 | 12 | 239 | 9.7 | 29.0 | 0.00 | 0.58 | 0.00 | 44 | 1012.9 |
| 20260508140456 | 12 | 247 | 6.4 | 24.1 | 0.00 | 0.58 | 0.00 | 44 | 1013.1 |
| 20260508135959 | 12 | 241 | 8.0 | 27.4 | 0.00 | 0.58 | 0.00 | 44 | 1012.9 |
| 20260508135458 | 12 | 228 | 9.7 | 32.2 | 0.00 | 0.30 | 0.00 | 44 | 1013.0 |
| 20260508134958 | 12 | 222 | 17.7 | 32.2 | 0.00 | 0.30 | 0.00 | 45 | 1012.8 |
| 20260508133458 | 11 | 211 | 14.5 | 33.8 | 0.00 | 0.30 | 0.00 | 46 | 1012.7 |
| 20260508132959 | 11 | 218 | 11.3 | 37.0 | 0.00 | 0.30 | 0.00 | 46 | 1012.8 |
| 20260508131958 | 11 | 229 | 11.3 | 22.5 | 0.00 | 0.30 | 0.00 | 47 | 1013.0 |
| 20260508131456 | 11 | 231 | 12.9 | 22.5 | 0.00 | 0.30 | 0.00 | 47 | 1012.7 |
| 20260508130959 | 11 | 248 | 6.4 | 24.1 | 0.00 | 0.30 | 0.00 | 48 | 1012.7 |
| 20260508130457 | 11 | 250 | 6.4 | 24.1 | 0.00 | 0.30 | 0.00 | 48 | 1012.5 |
| 20260508125958 | 10 | 240 | 14.5 | 24.1 | 0.00 | 0.30 | 0.00 | 48 | 1012.7 |
| 20260508125457 | 10 | 234 | 9.7 | 24.1 | 0.00 | 0.30 | 0.00 | 49 | 1012.6 |
| 20260508124959 | 10 | 237 | 12.9 | 27.4 | 0.00 | 0.30 | 0.00 | 49 | 1012.8 |
| 20260508124457 | 10 | 246 | 9.7 | 27.4 | 0.00 | 0.30 | 0.00 | 50 | 1012.7 |
| 20260508123958 | 10 | 244 | 8.0 | 25.7 | 0.00 | 0.30 | 0.00 | 50 | 1012.6 |
| 20260508123457 | 10 | 249 | 9.7 | 32.2 | 0.00 | 0.30 | 0.00 | 51 | 1012.4 |
| 20260508122458 | 9 | 240 | 6.4 | 22.5 | 0.00 | 0.30 | 0.00 | 52 | 1012.6 |
| 20260508121959 | 9 | 227 | 9.7 | 22.5 | 0.00 | 0.30 | 0.00 | 53 | 1012.5 |
| 20260508121458 | 9 | 237 | 8.0 | 20.9 | 0.00 | 0.30 | 0.00 | 55 | 1012.5 |
| 20260508121000 | 9 | 239 | 6.4 | 20.9 | 0.00 | 0.30 | 0.00 | 55 | 1012.6 |
| 20260508120458 | 8 | 228 | 8.0 | 24.1 | 0.00 | 0.30 | 0.00 | 55 | 1012.5 |
| 20260508115959 | 8 | 252 | 14.5 | 24.1 | 0.00 | 0.30 | 0.00 | 56 | 1012.1 |
| 20260508115458 | 8 | 253 | 14.5 | 24.1 | 0.00 | 0.30 | 0.00 | 57 | 1012.4 |
| 20260508114959 | 8 | 251 | 6.4 | 20.9 | 0.00 | 0.30 | 0.00 | 57 | 1012.3 |
| 20260508113958 | 8 | 251 | 9.7 | 17.7 | 0.00 | 0.30 | 0.00 | 57 | 1012.2 |
| 20260508113457 | 8 | 265 | 6.4 | 17.7 | 0.00 | 0.30 | 0.00 | 57 | 1011.9 |
| 20260508111958 | 8 | 241 | 6.4 | 24.1 | 0.00 | 0.30 | 0.00 | 57 | 1011.8 |
| 20260508111456 | 8 | 247 | 9.7 | 27.4 | 0.00 | 0.30 | 0.00 | 58 | 1011.9 |
| 20260508110456 | 8 | 241 | 12.9 | 27.4 | 0.00 | 0.30 | 0.00 | 57 | 1011.7 |
| 20260508105959 | 8 | 254 | 8.0 | 27.4 | 0.00 | 0.30 | 0.00 | 57 | 1011.4 |
| 20260508104457 | 8 | 243 | 8.0 | 22.5 | 0.00 | 0.30 | 0.00 | 54 | 1011.1 |
| 20260508103959 | 8 | 230 | 9.7 | 20.9 | 0.00 | 0.30 | 0.00 | 53 | 1011.0 |
| 20260508102959 | 9 | 242 | 9.7 | 27.4 | 0.00 | 0.30 | 0.00 | 51 | 1010.7 |
| 20260508102458 | 9 | 240 | 12.9 | 27.4 | 0.00 | 0.30 | 0.00 | 51 | 1010.6 |
| 20260508102000 | 9 | 232 | 11.3 | 24.1 | 0.00 | 0.30 | 0.00 | 50 | 1010.6 |
| 20260508101456 | 9 | 246 | 12.9 | 22.5 | 0.00 | 0.30 | 0.00 | 50 | 1010.3 |
| 20260508100959 | 9 | 234 | 6.4 | 25.7 | 0.00 | 0.30 | 0.00 | 50 | 1010.3 |
| 20260508100458 | 9 | 227 | 14.5 | 33.8 | 0.00 | 0.30 | 0.00 | 49 | 1010.3 |
| 20260508095959 | 9 | 222 | 12.9 | 33.8 | 0.00 | 0.30 | 0.00 | 49 | 1010.3 |
| 20260508095458 | 9 | 218 | 12.9 | 27.4 | 0.00 | 0.30 | 0.00 | 49 | 1010.2 |
| 20260508094959 | 9 | 223 | 14.5 | 27.4 | 0.00 | 0.30 | 0.00 | 49 | 1010.3 |
| 20260508094459 | 9 | 233 | 17.7 | 27.4 | 0.00 | 0.30 | 0.00 | 50 | 1010.2 |
| 20260508093457 | 9 | 227 | 12.9 | 25.7 | 0.00 | 0.30 | 0.00 | 52 | 1010.4 |
| 20260508093000 | 9 | 223 | 12.9 | 33.8 | 0.00 | 0.30 | 0.00 | 54 | 1010.3 |
| 20260508092458 | 9 | 220 | 11.3 | 33.8 | 0.00 | 0.30 | 0.00 | 54 | 1010.2 |
| 20260508091959 | 8 | 226 | 11.3 | 27.4 | 0.00 | 0.30 | 0.00 | 55 | 1010.1 |
| 20260508091457 | 8 | 239 | 12.9 | 27.4 | 0.00 | 0.30 | 0.00 | 56 | 1009.9 |
| 20260508090959 | 8 | 239 | 11.3 | 29.0 | 0.00 | 0.30 | 0.00 | 56 | 1009.7 |
| 20260508084959 | 8 | 236 | 12.9 | 24.1 | 0.00 | 0.30 | 0.00 | 58 | 1009.1 |
| 20260508084000 | 8 | 244 | 11.3 | 25.7 | 0.00 | 0.30 | 0.00 | 59 | 1009.2 |
| 20260508083457 | 8 | 236 | 14.5 | 25.7 | 0.00 | 0.30 | 0.00 | 59 | 1009.1 |
| 20260508082959 | 8 | 234 | 12.9 | 20.9 | 0.00 | 0.30 | 0.00 | 59 | 1009.1 |
| 20260508082457 | 8 | 248 | 6.4 | 24.1 | 0.00 | 0.30 | 0.00 | 59 | 1009.0 |
| 20260508081959 | 8 | 244 | 6.4 | 24.1 | 0.00 | 0.30 | 0.00 | 59 | 1009.3 |
| 20260508081457 | 9 | 229 | 9.7 | 24.1 | 0.00 | 0.30 | 0.00 | 58 | 1009.2 |
| 20260508080959 | 9 | 229 | 11.3 | 20.9 | 0.00 | 0.30 | 0.00 | 58 | 1009.1 |
| 20260508080458 | 9 | 243 | 8.0 | 20.9 | 0.00 | 0.30 | 0.00 | 58 | 1009.2 |
| 20260508075959 | 9 | 229 | 11.3 | 22.5 | 0.00 | 0.30 | 0.00 | 57 | 1009.3 |
| 20260508075457 | 9 | 208 | 8.0 | 24.1 | 0.00 | 0.30 | 0.00 | 57 | 1009.2 |
| 20260508075000 | 9 | 214 | 6.4 | 24.1 | 0.00 | 0.30 | 0.00 | 57 | 1009.2 |
| 20260508074459 | 10 | 213 | 6.4 | 22.5 | 0.00 | 0.38 | 0.00 | 57 | 1009.0 |
| 20260508073959 | 10 | 214 | 6.4 | 22.5 | 0.00 | 0.38 | 0.00 | 57 | 1009.2 |
| 20260508073456 | 10 | 206 | 14.5 | 24.1 | 0.00 | 0.38 | 0.00 | 59 | 1009.0 |
| 20260508072959 | 10 | 203 | 11.3 | 24.1 | 0.00 | 0.38 | 0.00 | 59 | 1009.4 |
| 20260508072458 | 10 | 218 | 6.4 | 32.2 | 0.00 | 0.41 | 0.00 | 59 | 1009.1 |
| 20260508071959 | 10 | 220 | 6.4 | 32.2 | 0.00 | 0.51 | 0.00 | 60 | 1009.1 |
| 20260508070958 | 10 | 217 | 9.7 | 17.7 | 0.00 | 0.58 | 0.00 | 60 | 1009.2 |
| 20260508070000 | 10 | 221 | 6.4 | 20.9 | 0.00 | 0.58 | 0.00 | 60 | 1009.0 |
| 20260508065001 | 10 | 222 | 6.4 | 22.5 | 0.00 | 0.58 | 0.00 | 59 | 1008.9 |
| 20260508064458 | 10 | 229 | 6.4 | 20.9 | 0.00 | 0.58 | 0.00 | 59 | 1009.1 |
| 20260508063959 | 10 | 232 | 4.8 | 29.0 | 0.00 | 0.58 | 0.00 | 58 | 1009.4 |
| 20260508063457 | 10 | 229 | 9.7 | 29.0 | 0.00 | 0.58 | 0.00 | 57 | 1009.2 |
| 20260508063000 | 10 | 229 | 8.0 | 25.7 | 0.00 | 0.58 | 0.00 | 57 | 1009.0 |
| 20260508062458 | 10 | 223 | 12.9 | 25.7 | 0.00 | 0.58 | 0.00 | 56 | 1009.0 |
| 20260508061959 | 10 | 224 | 9.7 | 22.5 | 0.00 | 0.58 | 0.00 | 56 | 1009.0 |
| 20260508061459 | 10 | 226 | 6.4 | 27.4 | 0.00 | 0.58 | 0.00 | 56 | 1009.2 |
| 20260508060959 | 10 | 222 | 12.9 | 27.4 | 0.00 | 0.58 | 0.00 | 55 | 1009.2 |
| 20260508055959 | 11 | 226 | 3.2 | 17.7 | 0.00 | 0.58 | 0.00 | 55 | 1009.4 |
| 20260508055458 | 11 | 229 | 9.7 | 22.5 | 0.00 | 0.58 | 0.00 | 55 | 1009.3 |
| 20260508054959 | 10 | 230 | 6.4 | 22.5 | 0.00 | 0.58 | 0.00 | 56 | 1009.5 |
| 20260508054457 | 10 | 235 | 6.4 | 17.7 | 0.00 | 0.58 | 0.00 | 57 | 1009.7 |
| 20260508054001 | 10 | 227 | 9.7 | 17.7 | 0.00 | 0.58 | 0.00 | 57 | 1009.6 |
| 20260508053001 | 10 | 260 | 6.4 | 17.7 | 0.00 | 0.58 | 0.00 | 61 | 1009.7 |
| 20260508052000 | 9 | 250 | 3.2 | 12.9 | 0.00 | 0.58 | 0.00 | 67 | 1010.0 |
| 20260508051459 | 9 | 252 | 3.2 | 12.9 | 0.00 | 0.58 | 0.00 | 68 | 1009.8 |
| 20260508050959 | 9 | 252 | 4.8 | 12.9 | 0.00 | 0.58 | 0.00 | 69 | 1009.7 |
| 20260508050458 | 9 | 252 | 3.2 | 12.9 | 0.00 | 0.58 | 0.00 | 69 | 1009.7 |
| 20260508050001 | 9 | 261 | 6.4 | 12.9 | 0.00 | 0.58 | 0.00 | 69 | 1009.7 |
| 20260508045458 | 9 | 283 | 3.2 | 12.9 | 0.00 | 0.58 | 0.00 | 71 | 1009.5 |
| 20260508044959 | 8 | 284 | 4.8 | 12.9 | 0.00 | 0.58 | 0.00 | 72 | 1009.7 |
| 20260508044459 | 9 | 286 | 4.8 | 11.3 | 0.00 | 0.58 | 0.00 | 72 | 1009.5 |
| 20260508043959 | 9 | 286 | 6.4 | 11.3 | 0.00 | 0.58 | 0.00 | 72 | 1009.3 |
| 20260508043000 | 10 | 286 | 6.4 | 14.5 | 0.00 | 0.58 | 0.00 | 69 | 1009.3 |
| 20260508042457 | 11 | 276 | 3.2 | 12.9 | 0.00 | 0.58 | 0.00 | 62 | 1009.4 |
| 20260508042000 | 11 | 273 | 3.2 | 20.9 | 0.00 | 0.58 | 0.00 | 61 | 1009.2 |
| 20260508041457 | 12 | 261 | 4.8 | 20.9 | 0.00 | 0.58 | 0.00 | 58 | 1009.0 |
| 20260508041000 | 12 | 241 | 8.0 | 24.1 | 0.00 | 0.58 | 0.00 | 55 | 1008.7 |
| 20260508040457 | 13 | 234 | 6.4 | 24.1 | 0.00 | 0.58 | 0.00 | 55 | 1008.4 |
| 20260508040000 | 12 | 222 | 11.3 | 17.7 | 0.00 | 0.58 | 0.00 | 55 | 1008.0 |
| 20260508035457 | 12 | 208 | 11.3 | 20.9 | 0.00 | 0.58 | 0.00 | 55 | 1007.9 |
| 20260508035000 | 12 | 195 | 12.9 | 24.1 | 0.00 | 0.58 | 0.00 | 56 | 1007.8 |
| 20260508033457 | 11 | 232 | 8.0 | 22.5 | 0.00 | 0.58 | 0.00 | 58 | 1008.2 |
| 20260508032457 | 11 | 229 | 12.9 | 17.7 | 0.00 | 0.58 | 0.00 | 59 | 1009.0 |
| 20260508032001 | 11 | 218 | 4.8 | 17.7 | 0.00 | 0.58 | 0.00 | 59 | 1008.6 |
| 20260508031457 | 11 | 218 | 8.0 | 17.7 | 0.00 | 0.58 | 0.00 | 59 | 1008.5 |
| 20260508030002 | 11 | 238 | 6.4 | 17.7 | 0.00 | 0.58 | 0.00 | 60 | 1008.6 |
| 20260508025458 | 11 | 234 | 3.2 | 14.5 | 0.00 | 0.58 | 0.58 | 60 | 1008.4 |
| 20260508025000 | 11 | 239 | 4.8 | 22.5 | 0.00 | 0.58 | 0.58 | 59 | 1008.8 |
| 20260508024458 | 12 | 239 | 6.4 | 22.5 | 0.00 | 0.58 | 0.58 | 58 | 1008.8 |
| 20260508023458 | 12 | 225 | 6.4 | 20.9 | 0.00 | 0.58 | 0.58 | 58 | 1008.9 |
| 20260508023000 | 12 | 238 | 4.8 | 24.1 | 0.00 | 0.58 | 0.58 | 57 | 1009.0 |
| 20260508022458 | 12 | 231 | 8.0 | 24.1 | 0.00 | 0.58 | 0.58 | 57 | 1008.9 |
| 20260508021959 | 12 | 232 | 6.4 | 22.5 | 0.00 | 0.58 | 0.58 | 58 | 1008.8 |
| 20260508021458 | 12 | 251 | 6.4 | 22.5 | 0.00 | 0.58 | 0.58 | 58 | 1009.0 |
| 20260508021000 | 12 | 257 | 8.0 | 22.5 | 0.00 | 0.58 | 0.58 | 58 | 1009.0 |
| 20260508020000 | 12 | 241 | 8.0 | 24.1 | 0.00 | 0.58 | 0.58 | 58 | 1008.9 |
| 20260508015459 | 12 | 249 | 6.4 | 24.1 | 0.00 | 0.58 | 0.58 | 59 | 1008.9 |
| 20260508014959 | 12 | 252 | 9.7 | 22.5 | 0.00 | 0.58 | 0.58 | 60 | 1008.6 |
| 20260508014459 | 12 | 252 | 6.4 | 20.9 | 0.00 | 0.58 | 0.58 | 61 | 1008.7 |
| 20260508013458 | 12 | 249 | 4.8 | 17.7 | 0.00 | 0.58 | 0.58 | 62 | 1008.6 |
| 20260508013000 | 12 | 242 | 6.4 | 25.7 | 0.00 | 0.58 | 0.58 | 62 | 1008.7 |
| 20260508012459 | 12 | 237 | 4.8 | 25.7 | 0.00 | 0.58 | 0.58 | 61 | 1008.6 |
| 20260508012001 | 12 | 247 | 8.0 | 22.5 | 0.00 | 0.58 | 0.58 | 62 | 1008.4 |
| 20260508011458 | 12 | 258 | 4.8 | 14.5 | 0.00 | 0.58 | 0.58 | 65 | 1008.3 |
| 20260508010959 | 12 | 260 | 3.2 | 17.7 | 0.00 | 0.58 | 0.58 | 66 | 1008.4 |
| 20260508010457 | 12 | 264 | 4.8 | 17.7 | 0.00 | 0.58 | 0.58 | 65 | 1008.3 |
| 20260508005458 | 12 | 250 | 8.0 | 17.7 | 0.00 | 0.58 | 0.58 | 65 | 1008.2 |
| 20260508005003 | 12 | 253 | 8.0 | 17.7 | 0.00 | 0.58 | 0.58 | 64 | 1008.4 |
| 20260508004457 | 12 | 252 | 6.4 | 14.5 | 0.00 | 0.58 | 0.58 | 65 | 1008.2 |
| 20260508004001 | 12 | 254 | 8.0 | 17.7 | 0.00 | 0.58 | 0.58 | 65 | 1008.4 |
| 20260508003459 | 13 | 245 | 6.4 | 17.7 | 0.00 | 0.58 | 0.58 | 64 | 1008.1 |
| 20260508003001 | 13 | 245 | 3.2 | 25.7 | 0.00 | 0.58 | 0.58 | 64 | 1008.3 |
| 20260508002458 | 13 | 249 | 6.4 | 25.7 | 0.00 | 0.58 | 0.58 | 63 | 1007.9 |
| 20260508002000 | 13 | 244 | 6.4 | 17.7 | 0.00 | 0.58 | 0.58 | 65 | 1007.6 |
| 20260508001459 | 13 | 241 | 4.8 | 17.7 | 0.00 | 0.58 | 0.58 | 64 | 1007.8 |
| 20260508001001 | 13 | 251 | 4.8 | 24.1 | 0.00 | 0.58 | 0.58 | 62 | 1008.0 |
| 20260508000000 | 13 | 246 | 8.0 | 20.9 | 0.00 | 0.58 | 0.58 | 62 | 1008.0 |
| 20260507235458 | 13 | 239 | 6.4 | 14.5 | 0.00 | 0.58 | 0.58 | 62 | 1007.9 |
| 20260507235000 | 13 | 233 | 6.4 | 12.9 | 0.00 | 0.58 | 0.58 | 62 | 1008.0 |
| 20260507234457 | 14 | 229 | 3.2 | 14.5 | 0.00 | 0.58 | 0.58 | 62 | 1008.0 |
| 20260507234001 | 14 | 231 | 3.2 | 14.5 | 0.00 | 0.58 | 0.58 | 62 | 1008.0 |
| 20260507233459 | 14 | 242 | 6.4 | 12.9 | 0.00 | 0.58 | 0.58 | 61 | 1008.0 |
| 20260507232001 | 15 | 235 | 3.2 | 17.7 | 0.00 | 0.58 | 0.58 | 60 | 1008.1 |